Weather History for KGEZ - February, 2013

Change the Weather History Date:

Friday, February 1, 2013

  Actual Average Record
Temperature  
Mean Temperature 12 °F 29 °F  
Max Temperature 17 °F 37 °F 61 °F (2012)
Min Temperature 6 °F 22 °F 6 °F (2013)
Degree Days  
Heating Degree Days 53 36  
Month to date heating degree days 53 36  
Since 1 July heating degree days 2956 3265  
Cooling Degree Days 0 0  
Month to date cooling degree days 0 0  
Year to date cooling degree days 0 0  
Moisture  
Dew Point 2 °F    
Average Humidity 65    
Maximum Humidity 76    
Minimum Humidity 54    
Precipitation  
Precipitation T in 0.08 in 0.89 in (2011)
Month to date precipitation T 0.08  
Year to date precipitation 3.88 2.47  
Sea Level Pressure  
Sea Level Pressure 30.31 in    
Wind  
Wind Speed 12 mph (West)    
Max Wind Speed 25 mph    
Max Gust Speed 33 mph    
Visibility 8 miles    
Events Snow    
T = Trace of Precipitation, MM = Missing Value Source: NWS Daily Summary

Daily Weather History Graph

Daily Weather History Graph

Search for Another Location

Airport or City:

Trip Planner

Search our weather history database for the weather conditions in past years. The results will help you decide how hot, cold, wet, or windy it might be!

Date:

Astronomy

Feb. 01, 2013 Rise Set
Actual Time 7:50 AM EST 6:03 PM EST
Civil Twilight 7:22 AM EST 6:32 PM EST
Nautical Twilight 6:50 AM EST 7:04 PM EST
Astronomical Twilight 6:18 AM EST 7:35 PM EST
Moon No Moon Rise 10:25 AM EST (2/1)
Length of Visible Light 11h 09m
Length of Day
10h 13m
Waning Gibbous, 70% of the Moon is Illuminated
Feb 1
Waning Gibbous
Feb 3
Last Quarter
Feb 10
New
Feb 17
First Quarter
Feb 25
Full

Hourly Weather History & Observations

Time (EST) Temp. Windchill Dew Point Humidity Pressure Visibility Wind Dir Wind Speed Gust Speed Precip Events Conditions
12:04 AM 12.2 °F -5.8 °F 6.8 °F 79% 30.09 in 1.8 mi WNW 19.6 mph 29.9 mph 0.00 in Snow Light Snow
12:16 AM 12.2 °F -6.3 °F 3.2 °F 67% 30.10 in 4.0 mi WNW 20.7 mph 26.5 mph 0.00 in Snow Light Snow
12:53 AM 10.9 °F -8.3 °F 1.0 °F 64% 30.15 in 10.0 mi WNW 21.9 mph 27.6 mph 0.00 in   Scattered Clouds
2:53 AM 10.0 °F -7.6 °F 3.0 °F 73% 30.22 in 2.5 mi West 17.3 mph 23.0 mph 0.00 in Snow Light Snow
3:20 AM 8.6 °F -10.0 °F 3.2 °F 79% 30.20 in 1.2 mi WNW 18.4 mph 23.0 mph 0.00 in Snow Light Snow
3:48 AM 8.6 °F -9.5 °F 1.4 °F 73% 30.22 in 3.0 mi WNW 17.3 mph - 0.00 in Snow Light Snow
3:53 AM 9.0 °F -10.0 °F -0.9 °F 64% 30.26 in 7.0 mi WNW 19.6 mph - 0.00 in Snow Light Snow
4:12 AM 8.6 °F -8.3 °F -0.4 °F 67% 30.22 in 10.0 mi WNW 15.0 mph - 0.00 in   Overcast
4:33 AM 8.6 °F -7.7 °F 3.2 °F 79% 30.22 in 1.8 mi WNW 13.8 mph 20.7 mph 0.00 in Snow Light Snow
4:53 AM 8.1 °F -9.0 °F 3.0 °F 80% 30.27 in 1.5 mi WNW 15.0 mph - 0.00 in Snow Light Snow
5:00 AM 8.6 °F -8.3 °F 1.4 °F 73% 30.23 in 3.0 mi WNW 15.0 mph 24.2 mph 0.00 in Snow Light Snow
5:53 AM 7.0 °F -8.3 °F -2.0 °F 67% 30.31 in 10.0 mi WNW 11.5 mph - 0.00 in   Overcast
6:53 AM 7.0 °F -7.5 °F -0.0 °F 73% 30.33 in 10.0 mi West 10.4 mph - N/A   Mostly Cloudy
7:22 AM 6.8 °F -9.3 °F -0.4 °F 72% 30.29 in 10.0 mi West 12.7 mph - N/A   Mostly Cloudy
7:32 AM 6.8 °F -8.6 °F -0.4 °F 72% 30.29 in 8.0 mi West 11.5 mph - N/A   Overcast
7:53 AM 7.0 °F -8.3 °F -0.9 °F 70% 30.34 in 10.0 mi West 11.5 mph - N/A   Mostly Cloudy
8:08 AM 6.8 °F -6.9 °F -2.2 °F 67% 30.30 in 10.0 mi West 9.2 mph - N/A   Partly Cloudy
8:33 AM 6.8 °F -5.9 °F -2.2 °F 67% 30.32 in 10.0 mi West 8.1 mph - N/A   Partly Cloudy
8:53 AM 7.0 °F -8.3 °F -0.9 °F 70% 30.37 in 10.0 mi West 11.5 mph - N/A   Clear
9:53 AM 9.0 °F -5.1 °F -0.0 °F 67% 30.40 in 10.0 mi West 10.4 mph - N/A   Partly Cloudy
10:05 AM 8.6 °F -6.3 °F -0.4 °F 67% 30.36 in 10.0 mi West 11.5 mph - N/A   Mostly Cloudy
10:53 AM 10.0 °F -5.9 °F 1.0 °F 67% 30.43 in 10.0 mi West 13.8 mph - N/A   Scattered Clouds
11:39 AM 12.2 °F -3.7 °F 1.4 °F 62% 30.38 in 9.0 mi WSW 15.0 mph - N/A   Mostly Cloudy
11:53 AM 12.9 °F -0.9 °F 3.0 °F 65% 30.43 in 10.0 mi West 11.5 mph - N/A   Mostly Cloudy
12:38 PM 12.2 °F -0.2 °F 1.4 °F 62% 30.38 in 10.0 mi WSW 9.2 mph - N/A   Scattered Clouds
12:49 PM 12.2 °F -3.1 °F 3.2 °F 67% 30.38 in 10.0 mi West 13.8 mph - N/A   Mostly Cloudy
12:53 PM 12.9 °F -0.9 °F 3.0 °F 65% 30.43 in 10.0 mi West 11.5 mph - N/A   Mostly Cloudy
1:53 PM 15.1 °F 1.8 °F 3.0 °F 59% 30.41 in 10.0 mi WSW 11.5 mph 18.4 mph N/A   Mostly Cloudy
2:21 PM 14.0 °F 0.5 °F 1.4 °F 57% 30.35 in 10.0 mi WSW 11.5 mph - N/A   Mostly Cloudy
2:53 PM 16.0 °F 0.6 °F 3.9 °F 59% 30.39 in 10.0 mi West 16.1 mph - N/A   Mostly Cloudy
4:53 PM 17.1 °F 5.0 °F 3.9 °F 56% 30.38 in 10.0 mi West 10.4 mph - N/A   Clear
5:53 PM 16.0 °F 4.4 °F 3.9 °F 59% 30.38 in 10.0 mi WSW 9.2 mph - N/A   Clear
6:53 PM 15.1 °F 6.4 °F 3.9 °F 61% 30.38 in 10.0 mi WSW 5.8 mph - N/A   Clear
7:53 PM 12.9 °F 5.2 °F 3.9 °F 67% 30.37 in 10.0 mi SSW 4.6 mph - N/A   Clear
8:53 PM 12.0 °F 2.7 °F 3.9 °F 70% 30.38 in 10.0 mi SW 5.8 mph - N/A   Clear
9:53 PM 14.0 °F 2.9 °F 5.0 °F 67% 30.35 in 10.0 mi SSW 8.1 mph - N/A   Partly Cloudy
10:53 PM 16.0 °F 6.3 °F 7.0 °F 68% 30.34 in 10.0 mi SSW 6.9 mph - N/A   Overcast
11:53 PM 17.1 °F 6.6 °F 8.1 °F 68% 30.31 in 10.0 mi South 8.1 mph - N/A   Overcast